Location: Fontevrault
(47.1823°N, 0.0493°E)
Time: 15:12:42
(UTC+00:00)

Cosmos 2123 Rocket - Pass Details

Date: 16 June 2021
Orbit: 961 x 992 km, 82.9° (Epoch: 30 July)

Event Time Altitude Azimuth Distance (km) Brightness Sun altitude
Exits shadow 21:34:05 14° 164° (SSE) 2,443 5.5 -12.1°
Maximum altitude 21:39:20 54° 91° (E) 1,195 4.3 -12.6°
Drops below altitude 10° 21:45:28 10° 17° (NNE) 2,765 7.0 -13.1°
Sets 21:48:03 0° 13° (NNE) 3,720 7.8 -13.4°
